[[{"header":{"parameterUnit":"m.s-1","parameterCategory":1,"la1":30.2991,"la2":30.254,"lo1":-89.0895,"lo2":-89.0444,"dy":0.0017,"dx":0.0017,"nx":28,"ny":28,"refTime":"2023-10-29T03:00:00:Z","depth":0,"parameterNumber":2,"parameterNumberName":"U-component_of_WINDS"},"data":[0,0,0,0,0,0,0,0,0,0,0,0,0,0,0,0,0,0,0,0,0,0,0,0,0,0,0,0,0,0,0,0,0,0,0,0,0,0,0,0,0,0,0,0,0,0,0,0,0,0,0,0,0,0,0,0,0,0,-1.2659,-1.2659,0,-1.2701,-1.2702,-1.2702,-1.268,-1.2679,-1.2677,-1.2676,-1.2719,-1.2721,-1.2724,0,0,0,0,0,0,0,0,0,0,0,0,0,-1.2561,-1.2563,-1.2659,-1.2659,-1.266,-1.2701,-1.2702,-1.2702,-1.268,-1.2678,-1.2677,-1.2676,-1.2719,-1.2721,-1.2724,0,0,0,0,0,0,0,0,0,0,0,0,0,-1.2603,-1.2564,-1.2659,-1.2654,-1.2654,-1.2701,-1.2702,-1.2702,-1.268,-1.2678,-1.2677,-1.2675,-1.2718,-1.2721,-1.2724,-1.2778,0,0,-1.2734,-1.2736,0,0,0,0,0,0,0,0,-1.2601,-1.2607,-1.2654,-1.2654,-1.2654,-1.2683,-1.2683,-1.2728,-1.2681,-1.267,-1.2676,-1.2674,-1.2709,-1.2713,-1.2724,-1.278,-1.2782,-1.2734,-1.2736,-1.2738,-1.2739,0,0,0,0,0,0,0,-1.2598,-1.2605,-1.2676,-1.2655,-1.2655,-1.265,-1.2654,-1.2691,-1.2698,-1.2671,-1.2669,-1.2675,-1.2708,-1.2721,-1.2725,-1.2783,-1.2734,-1.2737,-1.2739,-1.2741,-1.2889,-1.2891,0,0,0,0,0,0,-1.2595,-1.2603,-1.2674,-1.2677,-1.2623,-1.2653,-1.2658,-1.2676,-1.2698,-1.27,-1.2676,-1.2674,-1.2716,-1.2721,-1.2726,-1.2793,-1.2738,-1.2741,-1.2743,-1.2887,-1.2889,-1.2892,0,0,0,0,0,0,-1.2593,-1.2602,-1.2672,-1.2639,-1.2648,-1.2657,-1.2677,-1.2677,-1.269,-1.2702,-1.2703,-1.2688,-1.2715,-1.2722,-1.2766,-1.2794,-1.2742,-1.2745,-1.2885,-1.2888,-1.2891,-1.2926,0,0,0,0,0,0,-1.2591,-1.2601,-1.2621,-1.264,-1.265,-1.2711,-1.2679,-1.268,-1.2696,-1.2693,-1.2713,-1.2715,-1.2714,-1.2762,-1.277,-1.2798,-1.2748,-1.2882,-1.2886,-1.289,-1.2922,-1.293,-1.2936,0,0,0,0,0,-1.2587,-1.2629,-1.2622,-1.2631,-1.2675,-1.2713,-1.2718,-1.2717,-1.2698,-1.2719,-1.2727,-1.2714,-1.279,-1.2766,-1.2775,-1.2805,-1.288,-1.2885,-1.2889,-1.2919,-1.2928,-1.2936,0,0,0,0,0,0,-1.2612,-1.2631,-1.2624,-1.2673,-1.2692,-1.2709,-1.2734,-1.2726,-1.275,-1.2746,-1.2744,-1.2749,-1.2796,-1.2805,-1.2778,-1.286,-1.2832,-1.2839,-1.2852,-1.2861,-1.2868,-1.2864,-1.2751,0,0,0,0,0,-1.2623,-1.2652,-1.2667,-1.2709,-1.2719,-1.2726,-1.2742,-1.274,-1.2759,-1.2766,-1.2777,-1.2796,-1.2825,-1.2843,-1.287,-1.2924,-1.2929,-1.2949,-1.2956,-1.2962,-1.2967,-1.2999,-1.3008,-1.2906,-1.2906,-1.2906,0,0,-1.2647,-1.2661,-1.2679,-1.2715,-1.2729,-1.2759,-1.2732,-1.2765,-1.2788,-1.2771,-1.2814,-1.2823,-1.2845,-1.2895,-1.2917,-1.2904,-1.2997,-1.2967,-1.2972,-1.2974,-1.3004,-1.3014,-1.3022,-1.2909,-1.2909,-1.2908,0,0,-1.2705,-1.2718,-1.2755,-1.2771,-1.2793,-1.2798,-1.2807,-1.2826,-1.2832,-1.2875,-1.2864,-1.2892,-1.294,-1.2957,-1.2972,-1.304,-1.303,-1.3049,-1.3085,-1.3116,-1.3124,-1.3131,-1.3156,-1.3165,-1.3055,-1.3055,-1.3055,0,-1.2731,-1.2776,-1.2775,-1.281,-1.2827,-1.2815,-1.2853,-1.2868,-1.2898,-1.291,-1.2895,-1.2958,-1.2971,-1.3026,-1.3043,-1.3055,-1.3066,-1.3046,-1.3122,-1.313,-1.3136,-1.3161,-1.317,-1.3057,-1.3057,-1.3056,-1.3056,0,-1.2808,-1.284,-1.2867,-1.2898,-1.2918,-1.2954,-1.296,-1.2981,-1.2978,-1.2985,-1.3031,-1.3047,-1.3078,-1.3091,-1.3087,-1.3146,-1.3137,-1.3122,-1.3094,-1.3148,-1.3171,-1.3181,-1.306,-1.3059,-1.3059,-1.3058,0,0,-1.288,-1.2912,-1.2922,-1.2937,-1.2962,-1.2987,-1.3024,-1.3055,-1.3074,-1.3096,-1.3127,-1.3171,-1.3158,-1.3175,-1.3174,-1.3201,-1.3257,-1.3183,-1.3184,-1.3197,-1.3324,-1.3335,-1.3346,-1.325,-1.3252,-1.3254,-1.3323,0,-1.2941,-1.3005,-1.3007,-1.3067,-1.3097,-1.3088,-1.3121,-1.314,-1.3148,-1.3176,-1.3185,-1.3216,-1.3197,-1.3207,-1.3234,-1.3244,-1.3282,-1.3239,-1.3281,-1.3282,-1.3275,-1.3358,-1.3369,-1.3433,-1.3331,-1.3333,-1.3334,0,-1.3019,-1.3045,-1.3108,-1.3131,-1.3144,-1.3173,-1.3203,-1.323,-1.3253,-1.3257,-1.3278,-1.3274,-1.3313,-1.3285,-1.334,-1.3311,-1.3329,-1.3337,-1.334,-1.3343,-1.3311,-1.3364,-1.3453,-1.3463,-1.3348,-1.3347,-1.3346,0,-1.3067,-1.3117,-1.3162,-1.3175,-1.3203,-1.3224,-1.3237,-1.3259,-1.3278,-1.3305,-1.3318,-1.3349,-1.3365,-1.339,-1.3395,-1.3374,-1.3451,-1.3423,-1.3456,-1.3457,-1.3472,-1.3471,-1.3566,-1.3484,-1.3484,-1.3483,-1.3483,0,-1.3134,-1.3173,-1.3184,-1.3211,-1.3256,-1.3259,-1.3303,-1.3314,-1.3334,-1.3365,-1.3359,-1.3387,-1.3392,-1.3423,-1.3427,-1.3473,-1.3481,-1.3486,-1.3487,-1.3487,-1.3486,-1.3497,-1.3493,-1.3486,-1.3485,-1.3485,-1.3484,0,-1.3193,-1.3203,-1.3251,-1.3275,-1.3282,-1.3314,-1.3335,-1.3362,-1.3371,-1.341,-1.3419,-1.3433,-1.3468,-1.3477,-1.3519,-1.3522,-1.3577,-1.3573,-1.3569,-1.3569,-1.3602,-1.3599,-1.3707,-1.3722,-1.363,-1.3631,-1.3632,0,-1.3235,-1.3265,-1.3294,-1.3314,-1.3328,-1.3361,-1.3381,-1.3387,-1.3408,-1.3439,-1.3463,-1.3498,-1.3527,-1.3585,-1.3599,-1.3632,-1.3629,-1.3665,-1.3634,-1.3634,-1.3631,-1.3629,-1.3632,-1.3671,-1.3672,-1.3672,-1.3673,0,-1.3309,-1.3313,-1.3343,-1.3376,-1.3401,-1.3426,-1.3451,-1.3468,-1.3477,-1.3502,-1.3539,-1.3561,-1.3606,-1.3641,-1.3675,-1.3689,-1.3683,-1.3683,-1.3693,-1.3693,-1.3689,-1.3693,-1.3585,-1.368,-1.368,-1.3679,-1.3679,-1.3678,-1.3362,-1.3389,-1.3414,-1.3448,-1.3468,-1.3492,-1.3519,-1.3532,-1.3563,-1.36,-1.3602,-1.3643,-1.3668,-1.3713,-1.373,-1.3762,-1.3751,-1.3765,-1.3769,-1.3772,-1.3775,-1.3685,-1.3769,-1.3768,-1.3768,-1.3768,-1.3768,0,-1.3436,-1.3452,-1.3484,-1.3519,-1.3547,-1.354,-1.3568,-1.3592,-1.3628,-1.3652,-1.3681,-1.3725,-1.3761,-1.3779,-1.3815,-1.3837,-1.3836,-1.3847,-1.3845,-1.3849,-1.3783,-1.3771,-1.3848,-1.3848,-1.3848,-1.3848,-1.3848,-1.3847,-1.3478,-1.3524,-1.3532,-1.3589,-1.3605,-1.3645,-1.3662,-1.3685,-1.3704,-1.3754,-1.3784,-1.3796,-1.3818,-1.3856,-1.3889,-1.3894,-1.3907,-1.392,-1.3923,-1.3861,-1.3853,-1.3845,-1.3834,-1.3923,-1.3923,-1.3986,-1.3987,-1.3987]},{"header":{"parameterUnit":"m.s-1","parameterCategory":1,"la1":30.2991,"la2":30.254,"lo1":-89.0895,"lo2":-89.0444,"dy":0.0017,"dx":0.0017,"nx":28,"ny":28,"refTime":"2023-10-29T03:00:00:Z","depth":0,"parameterNumber":3,"parameterNumberName":"V-component_of_WINDS"},"data":[0,0,0,0,0,0,0,0,0,0,0,0,0,0,0,0,0,0,0,0,0,0,0,0,0,0,0,0,0,0,0,0,0,0,0,0,0,0,0,0,0,0,0,0,0,0,0,0,0,0,0,0,0,0,0,0,0,0,-0.2349,-0.235,0,-0.2452,-0.2453,-0.2454,-0.2511,-0.2511,-0.2511,-0.2512,-0.2615,-0.2618,-0.262,0,0,0,0,0,0,0,0,0,0,0,0,0,-0.22,-0.2202,-0.2349,-0.235,-0.2351,-0.2451,-0.2453,-0.2454,-0.2511,-0.2511,-0.2511,-0.2512,-0.2614,-0.2617,-0.262,0,0,0,0,0,0,0,0,0,0,0,0,0,-0.228,-0.2203,-0.2349,-0.2392,-0.2397,-0.2451,-0.2453,-0.2455,-0.2511,-0.2511,-0.2511,-0.2512,-0.2613,-0.2617,-0.2621,-0.264,0,0,-0.2633,-0.2634,0,0,0,0,0,0,0,0,-0.2275,-0.2285,-0.2384,-0.2389,-0.2395,-0.2469,-0.2438,-0.2517,-0.2511,-0.2467,-0.2512,-0.2512,-0.2566,-0.2574,-0.2592,-0.2644,-0.2649,-0.2633,-0.2635,-0.2637,-0.2638,0,0,0,0,0,0,0,-0.2269,-0.2281,-0.2389,-0.2385,-0.2392,-0.2405,-0.2417,-0.2453,-0.2514,-0.2471,-0.2476,-0.2487,-0.2569,-0.2589,-0.2595,-0.265,-0.2633,-0.2636,-0.2639,-0.264,-0.2722,-0.2722,0,0,0,0,0,0,-0.2257,-0.2276,-0.2386,-0.2392,-0.2334,-0.2408,-0.2421,-0.2445,-0.2514,-0.2525,-0.2487,-0.2489,-0.2582,-0.2591,-0.2599,-0.2626,-0.2637,-0.2641,-0.2643,-0.2722,-0.2722,-0.2722,0,0,0,0,0,0,-0.2254,-0.2266,-0.2382,-0.2335,-0.2351,-0.241,-0.2436,-0.2447,-0.2466,-0.2526,-0.2536,-0.2496,-0.2582,-0.2594,-0.2629,-0.263,-0.2642,-0.2646,-0.2723,-0.2722,-0.2722,-0.2679,0,0,0,0,0,0,-0.2249,-0.2265,-0.2273,-0.2335,-0.2353,-0.2411,-0.2436,-0.2448,-0.2473,-0.2477,-0.2537,-0.2547,-0.2583,-0.2623,-0.2633,-0.2636,-0.2649,-0.2723,-0.2723,-0.2722,-0.2681,-0.2677,-0.2675,0,0,0,0,0,-0.2244,-0.2257,-0.2273,-0.2286,-0.2365,-0.2411,-0.2421,-0.2463,-0.2473,-0.2482,-0.2519,-0.2545,-0.2628,-0.2626,-0.2638,-0.2642,-0.2723,-0.2723,-0.2722,-0.2682,-0.2678,-0.2675,0,0,0,0,0,0,-0.2193,-0.2266,-0.2285,-0.2319,-0.2358,-0.242,-0.2433,-0.2458,-0.2495,-0.2497,-0.2547,-0.256,-0.2591,-0.262,-0.2616,-0.2663,-0.2678,-0.268,-0.2644,-0.264,-0.2637,-0.263,-0.2652,0,0,0,0,0,-0.2186,-0.2217,-0.2279,-0.2302,-0.2321,-0.2373,-0.2395,-0.2424,-0.2466,-0.2483,-0.2524,-0.2564,-0.2599,-0.2621,-0.2657,-0.2685,-0.2698,-0.2693,-0.269,-0.2687,-0.2688,-0.2705,-0.2703,-0.2721,-0.2721,-0.2721,0,0,-0.2171,-0.2215,-0.2232,-0.2293,-0.2328,-0.2358,-0.2387,-0.2419,-0.2442,-0.2488,-0.2524,-0.2555,-0.2603,-0.2634,-0.265,-0.266,-0.2686,-0.2687,-0.2684,-0.2687,-0.2705,-0.2703,-0.2701,-0.2721,-0.2721,-0.2721,0,0,-0.2161,-0.2197,-0.2221,-0.2254,-0.2305,-0.2339,-0.2345,-0.2403,-0.2426,-0.2463,-0.2498,-0.2526,-0.2585,-0.2618,-0.2642,-0.2642,-0.2667,-0.2652,-0.2637,-0.2652,-0.2651,-0.265,-0.265,-0.265,-0.2653,-0.2653,-0.2653,0,-0.2136,-0.2185,-0.2229,-0.2259,-0.2285,-0.2328,-0.2352,-0.2382,-0.2442,-0.2458,-0.2467,-0.2543,-0.2578,-0.2618,-0.2618,-0.2636,-0.2643,-0.2646,-0.2648,-0.2647,-0.2647,-0.2648,-0.2648,-0.2651,-0.2651,-0.2651,-0.2652,0,-0.2152,-0.2185,-0.2198,-0.2255,-0.2282,-0.2309,-0.2357,-0.2378,-0.2404,-0.2437,-0.2474,-0.2518,-0.2563,-0.2574,-0.26,-0.2617,-0.2621,-0.2638,-0.2654,-0.2642,-0.2644,-0.2645,-0.2648,-0.2649,-0.2649,-0.265,0,0,-0.2114,-0.2195,-0.2199,-0.2225,-0.2284,-0.231,-0.2338,-0.2382,-0.24,-0.2439,-0.2464,-0.2513,-0.2529,-0.2556,-0.2586,-0.2599,-0.2597,-0.2615,-0.2617,-0.261,-0.2618,-0.2606,-0.2605,-0.2613,-0.2613,-0.2613,-0.2615,0,-0.2112,-0.2166,-0.2206,-0.2243,-0.2274,-0.2315,-0.2339,-0.2377,-0.2408,-0.2438,-0.2473,-0.2507,-0.2525,-0.2542,-0.2557,-0.2594,-0.2599,-0.2594,-0.2636,-0.2637,-0.2624,-0.2606,-0.2593,-0.2592,-0.2615,-0.2616,-0.2616,0,-0.2118,-0.2156,-0.2197,-0.2252,-0.2267,-0.2288,-0.2332,-0.236,-0.2404,-0.2425,-0.2455,-0.2486,-0.2516,-0.2528,-0.2571,-0.2566,-0.2586,-0.2606,-0.2607,-0.2613,-0.2626,-0.2613,-0.2593,-0.2593,-0.2617,-0.2617,-0.2617,0,-0.2086,-0.2148,-0.218,-0.2201,-0.2267,-0.2281,-0.2308,-0.2352,-0.2376,-0.2414,-0.243,-0.247,-0.2492,-0.2522,-0.2562,-0.2568,-0.26,-0.2616,-0.2619,-0.2618,-0.2625,-0.2624,-0.2609,-0.2636,-0.2636,-0.2636,-0.2636,0,-0.2081,-0.2104,-0.2167,-0.2187,-0.2214,-0.2259,-0.2285,-0.2316,-0.2354,-0.2381,-0.2417,-0.2441,-0.2492,-0.2521,-0.2553,-0.2583,-0.2592,-0.261,-0.2619,-0.2608,-0.2605,-0.2622,-0.2623,-0.2636,-0.2636,-0.2636,-0.2636,0,-0.2051,-0.2094,-0.2132,-0.219,-0.2205,-0.2223,-0.2273,-0.2293,-0.2326,-0.2358,-0.2368,-0.2419,-0.2456,-0.2498,-0.2548,-0.2569,-0.2597,-0.2609,-0.2583,-0.2588,-0.2588,-0.2588,-0.2584,-0.2585,-0.261,-0.261,-0.2609,0,-0.2045,-0.2064,-0.2125,-0.2145,-0.2172,-0.2204,-0.2229,-0.2273,-0.2297,-0.2348,-0.2362,-0.2401,-0.2435,-0.2491,-0.2532,-0.2571,-0.2584,-0.258,-0.259,-0.2578,-0.2584,-0.2583,-0.2585,-0.2577,-0.2577,-0.2576,-0.2576,0,-0.203,-0.2051,-0.2085,-0.2126,-0.2155,-0.2189,-0.2225,-0.224,-0.2291,-0.2316,-0.2354,-0.238,-0.2431,-0.247,-0.2513,-0.2541,-0.2567,-0.2572,-0.2575,-0.2565,-0.2549,-0.2558,-0.2576,-0.2572,-0.2573,-0.2573,-0.2573,-0.2573,-0.2013,-0.2032,-0.2077,-0.2114,-0.2145,-0.2178,-0.22,-0.2235,-0.2268,-0.2314,-0.2337,-0.2375,-0.2417,-0.2478,-0.2505,-0.2534,-0.2543,-0.2547,-0.2548,-0.2549,-0.2545,-0.2543,-0.2542,-0.2542,-0.2542,-0.2542,-0.2542,0,-0.2001,-0.2031,-0.2065,-0.2114,-0.2143,-0.2165,-0.2205,-0.2228,-0.226,-0.2298,-0.233,-0.2373,-0.241,-0.2454,-0.2494,-0.2509,-0.2522,-0.2518,-0.2517,-0.2523,-0.2535,-0.2529,-0.2507,-0.2507,-0.2507,-0.2507,-0.2507,-0.2507,-0.1998,-0.203,-0.2055,-0.2104,-0.2135,-0.2172,-0.2193,-0.2223,-0.2253,-0.23,-0.2331,-0.2359,-0.2399,-0.2442,-0.2476,-0.2488,-0.2501,-0.2494,-0.2509,-0.2519,-0.2523,-0.2526,-0.252,-0.2496,-0.2496,-0.2495,-0.2495,-0.2495]}]]